Weather History for Copper Mountain, CO

Change the Weather History Date:

Thursday, January 23, 2014

  Actual Average (KLXV) Record (KLXV)
Temperature  
Mean Temperature 16 °F -  
Max Temperature 21 °F 30 °F 48 °F (2013)
Min Temperature 10 °F 4 °F -15 °F (1984)
Degree Days  
Heating Degree Days 50 48  
Month to date heating degree days 1104  
Since 1 July heating degree days 6005  
Cooling Degree Days 0 0  
Month to date cooling degree days 0  
Year to date cooling degree days 0  
Moisture  
Dew Point -3 °F    
Average Humidity 48    
Maximum Humidity 73    
Minimum Humidity 19    
Precipitation  
Precipitation 0.00 in 0.01 in 0.10 in (1999)
Month to date precipitation 0.46  
Year to date precipitation 0.46  
Sea Level Pressure  
Sea Level Pressure 30.17 in    
Wind  
Wind Speed 10 mph (WSW)    
Max Wind Speed 18 mph    
Max Gust Speed 21 mph    
Visibility 9 miles    
Events Snow    
T = Trace of Precipitation, MM = Missing Value Source: NWS Daily Summary

Daily Weather History Graph

Daily Weather History Graph

Search for Another Location

Airport:

Trip Planner

Search our weather history database for the weather conditions in past years. The results will help you decide how hot, cold, wet, or windy it might be!

Date:

Astronomy

Jan. 23, 2014 Rise Set
Actual Time 7:19 AM MST 5:14 PM MST
Civil Twilight 6:50 AM MST 5:43 PM MST
Nautical Twilight 6:17 AM MST 6:16 PM MST
Astronomical Twilight 5:45 AM MST 6:47 PM MST
Moon No Moon Rise 10:57 AM MST (1/23)
Length of Visible Light 10h 53m
Length of Day
9h 55m
Waning Gibbous, 54% of the Moon is Illuminated
Jan 23
Waning Gibbous
Jan 23
Last Quarter
Jan 30
New
Feb 6
First Quarter
Feb 14
Full

Hourly Weather History & Observations

Time (MST) Temp. Windchill Dew Point Humidity Pressure Visibility Wind Dir Wind Speed Gust Speed Precip Events Conditions
12:16 AM 14.0 °F - 1.4 °F 57% 30.00 in 10.0 mi North - - N/A   Overcast
12:36 AM 14.0 °F -0.2 °F 1.4 °F 57% 29.99 in 10.0 mi South 12.7 mph - N/A   Scattered Clouds
12:56 AM 14.0 °F 2.9 °F 3.2 °F 62% 29.99 in 10.0 mi South 8.1 mph - N/A   Mostly Cloudy
1:16 AM 14.0 °F 6.5 °F 1.4 °F 57% 29.99 in 10.0 mi West 4.6 mph - N/A   Scattered Clouds
1:36 AM 14.0 °F -0.2 °F 1.4 °F 57% 29.99 in 10.0 mi South 12.7 mph - N/A   Scattered Clouds
1:56 AM 14.0 °F -0.8 °F 3.2 °F 62% 29.99 in 10.0 mi South 13.8 mph - N/A   Scattered Clouds
2:16 AM 14.0 °F -1.4 °F 3.2 °F 62% 29.99 in 10.0 mi WNW 15.0 mph - N/A   Scattered Clouds
2:36 AM 14.0 °F 3.9 °F 3.2 °F 62% 30.00 in 10.0 mi South 6.9 mph - N/A   Clear
2:56 AM 14.0 °F 3.9 °F 3.2 °F 62% 29.99 in 10.0 mi South 6.9 mph - N/A   Clear
3:16 AM 14.0 °F - 3.2 °F 62% 30.00 in 10.0 mi North - - N/A   Clear
3:36 AM 14.0 °F 6.5 °F 3.2 °F 62% 30.00 in 10.0 mi SSW 4.6 mph - N/A   Clear
3:56 AM 14.0 °F -2.0 °F 3.2 °F 62% 29.99 in 10.0 mi South 16.1 mph - N/A   Clear
4:16 AM 14.0 °F 6.5 °F 3.2 °F 62% 30.00 in 10.0 mi West 4.6 mph - N/A   Clear
4:36 AM 14.0 °F 3.9 °F 3.2 °F 62% 30.01 in 10.0 mi South 6.9 mph - N/A   Clear
4:56 AM 12.2 °F 0.7 °F 1.4 °F 62% 30.02 in 10.0 mi West 8.1 mph - N/A   Scattered Clouds
5:16 AM 12.2 °F - 3.2 °F 67% 30.03 in 10.0 mi North - - N/A   Mostly Cloudy
5:36 AM 12.2 °F 2.9 °F 3.2 °F 67% 30.05 in 10.0 mi WNW 5.8 mph - N/A   Overcast
5:56 AM 12.2 °F 4.3 °F 3.2 °F 67% 30.06 in 2.5 mi South 4.6 mph - N/A Snow Light Snow
6:16 AM 14.0 °F 5.1 °F 5.0 °F 67% 30.07 in 7.0 mi South 5.8 mph - N/A Snow Light Snow
6:25 AM 12.2 °F 2.9 °F 3.2 °F 67% 30.08 in 7.0 mi South 5.8 mph - N/A Snow Light Snow
7:16 AM 10.4 °F 0.8 °F 3.2 °F 73% 30.10 in 4.0 mi WNW 5.8 mph - N/A Snow Light Snow
7:36 AM 10.4 °F 0.8 °F 3.2 °F 73% 30.11 in 2.5 mi WNW 5.8 mph - N/A Snow Light Snow
7:56 AM 10.4 °F 0.8 °F 3.2 °F 73% 30.12 in 10.0 mi WNW 5.8 mph - N/A   Clear
8:16 AM 12.2 °F 4.3 °F 5.0 °F 73% 30.12 in 10.0 mi West 4.6 mph - N/A   Clear
8:36 AM 12.2 °F 0.7 °F 5.0 °F 73% 30.12 in 7.0 mi West 8.1 mph - N/A Snow Light Snow
8:56 AM 14.0 °F 6.5 °F 5.0 °F 67% 30.14 in 10.0 mi West 4.6 mph - N/A   Clear
9:16 AM 14.0 °F 6.5 °F 1.4 °F 57% 30.15 in 10.0 mi West 4.6 mph - N/A   Clear
9:36 AM 12.2 °F 1.7 °F 3.2 °F 67% 30.15 in 3.0 mi West 6.9 mph - N/A   Haze
9:56 AM 14.0 °F 6.5 °F 5.0 °F 67% 30.16 in 4.0 mi WNW 4.6 mph - N/A   Haze
10:16 AM 14.0 °F 5.1 °F 1.4 °F 57% 30.17 in 10.0 mi West 5.8 mph - N/A   Clear
10:36 AM 14.0 °F 2.0 °F -0.4 °F 53% 30.18 in 10.0 mi West 9.2 mph - N/A   Clear
10:56 AM 14.0 °F 2.0 °F -4.0 °F 45% 30.19 in 10.0 mi West 9.2 mph - N/A   Clear
11:16 AM 14.0 °F 2.0 °F -7.6 °F 38% 30.20 in 10.0 mi West 9.2 mph - N/A   Clear
11:36 AM 15.8 °F 6.1 °F -16.6 °F 23% 30.20 in 10.0 mi West 6.9 mph - N/A   Clear
11:56 AM 17.6 °F 8.2 °F -16.6 °F 21% 30.20 in 10.0 mi West 6.9 mph - N/A   Clear
12:16 PM 17.6 °F 5.0 °F -16.6 °F 21% 30.20 in 10.0 mi West 11.5 mph - N/A   Clear
12:36 PM 19.4 °F 10.4 °F -13.0 °F 23% 30.20 in 10.0 mi West 6.9 mph - N/A   Clear
12:56 PM 19.4 °F 9.5 °F -7.6 °F 30% 30.20 in 10.0 mi West 8.1 mph - N/A   Clear
1:16 PM 19.4 °F 11.5 °F -9.4 °F 28% 30.20 in 10.0 mi West 5.8 mph - N/A   Clear
1:36 PM 19.4 °F 9.5 °F -9.4 °F 28% 30.20 in 10.0 mi West 8.1 mph - N/A   Clear
1:56 PM 19.4 °F 8.6 °F -9.4 °F 28% 30.21 in 10.0 mi West 9.2 mph - N/A   Clear
2:16 PM 21.2 °F 12.6 °F -11.2 °F 24% 30.21 in 10.0 mi West 6.9 mph - N/A   Clear
2:36 PM 19.4 °F 5.5 °F -13.0 °F 23% 30.22 in 10.0 mi West 15.0 mph 20.7 mph N/A   Clear
2:56 PM 19.4 °F - -13.0 °F 23% 30.22 in 10.0 mi North - - N/A   Clear
3:16 PM 19.4 °F 5.5 °F -11.2 °F 25% 30.23 in 10.0 mi West 15.0 mph 20.7 mph N/A   Clear
3:36 PM 19.4 °F - -7.6 °F 30% 30.23 in 10.0 mi North - - N/A   Clear
3:56 PM 19.4 °F 5.0 °F -5.8 °F 33% 30.24 in 10.0 mi West 16.1 mph - N/A   Clear
4:16 PM 19.4 °F 5.0 °F -5.8 °F 33% 30.24 in 10.0 mi West 16.1 mph - N/A   Clear
4:36 PM 17.6 °F 1.7 °F -2.2 °F 42% 30.24 in 10.0 mi West 18.4 mph - N/A   Clear
4:56 PM 15.8 °F -0.6 °F -4.0 °F 41% 30.25 in 10.0 mi West 18.4 mph - N/A   Clear
5:16 PM 14.0 °F -3.0 °F -4.0 °F 45% 30.25 in 10.0 mi West 18.4 mph - N/A   Clear
5:36 PM 14.0 °F -1.4 °F -4.0 °F 45% 30.26 in 10.0 mi West 15.0 mph - N/A   Clear
5:56 PM 14.0 °F -0.2 °F -0.4 °F 53% 30.26 in 10.0 mi West 12.7 mph - N/A   Clear
6:16 PM 14.0 °F -0.8 °F -2.2 °F 49% 30.27 in 10.0 mi West 13.8 mph - N/A   Clear
6:36 PM 14.0 °F 0.5 °F -0.4 °F 53% 30.28 in 10.0 mi West 11.5 mph - N/A   Clear
6:56 PM 12.2 °F - -2.2 °F 53% 30.28 in 10.0 mi North - - N/A   Clear
7:16 PM 12.2 °F 1.7 °F -4.0 °F 48% 30.29 in 10.0 mi West 6.9 mph - N/A   Clear
7:36 PM 14.0 °F 6.5 °F -4.0 °F 45% 30.31 in 10.0 mi SSW 4.6 mph - N/A   Clear
7:56 PM 14.0 °F 8.2 °F -5.8 °F 41% 30.31 in 10.0 mi WSW 3.5 mph - N/A   Clear
8:16 PM 12.2 °F -3.1 °F -5.8 °F 45% 30.31 in 10.0 mi West 13.8 mph - N/A   Clear
8:36 PM 12.2 °F -2.5 °F -4.0 °F 48% 30.32 in 10.0 mi WSW 12.7 mph - N/A   Clear
8:56 PM 12.2 °F -1.8 °F -4.0 °F 48% 30.33 in 10.0 mi WSW 11.5 mph - N/A   Clear
9:16 PM 12.2 °F -2.5 °F -4.0 °F 48% 30.33 in 10.0 mi WSW 12.7 mph - N/A   Clear
9:36 PM 12.2 °F -4.3 °F -4.0 °F 48% 30.34 in 10.0 mi West 16.1 mph - N/A   Clear
9:56 PM 12.2 °F -4.8 °F -2.2 °F 53% 30.34 in 10.0 mi West 17.3 mph - N/A   Clear
10:16 PM 14.0 °F -2.0 °F -13.0 °F 29% 30.34 in 10.0 mi West 16.1 mph 20.7 mph N/A   Clear
10:36 PM 12.2 °F -3.7 °F -13.0 °F 32% 30.34 in 10.0 mi West 15.0 mph - N/A   Clear
10:56 PM 12.2 °F -3.1 °F -14.8 °F 29% 30.34 in 10.0 mi West 13.8 mph - N/A   Clear
11:16 PM 14.0 °F -2.5 °F -22.0 °F 19% 30.34 in 10.0 mi West 17.3 mph - N/A   Clear
11:36 PM 12.2 °F - -9.4 °F 38% 30.36 in 10.0 mi North - - N/A   Clear
11:56 PM 14.0 °F - -13.0 °F 29% 30.35 in 10.0 mi North - - N/A   Clear